User: anonymous   Login
Location: Voyageurs National Park
(48.5020°N, 92.9292°W)
Time: 17:32:42
(UTC-05:00)
Language:

Terra - Orbit

View from above orbital plane
View from above orbital plane
View from above satellite
View from above satellite

Ground track
Ground track

The orbit data is extracted from the following two-line orbital elements,

1 25994U 99068A   18110.22688839  .00000129  00000-0  38687-4 0  9996
2 25994  98.2076 185.9281 0000735 115.1671 244.9621 14.57095466975381
Epoch (UTC): 20 April 2018 05:26:43
Eccentricity: 0.0000735
inclination: 98.2076°
perigee height: 702 km
apogee height: 703 km
right ascension of ascending node: 185.9281°
argument of perigee: 115.1671°
revolutions per day: 14.57095466
mean anomaly at epoch: 244.9621°
orbit number at epoch: 97538

The dashed part of the orbit path shows where the satellite is in the earth's shadow,  

DLR